START_TIME,STEP,MOV.,P11,t_acc.,P23,t_acc.,P27,t_acc.,A4,t_acc.
1979-07-29 09:00:22.220 ,0,0,1.,4.8,0.,4.8,0.,4.8,0.,4.8
1979-07-29 09:00:27.020 ,0,0,2.,4.8,0.,4.8,0.,4.8,0.,4.8
1979-07-29 09:00:31.820 ,0,0,1.,4.8,0.,4.8,0.,4.8,0.,4.8
1979-07-29 09:00:36.620 ,0,0,2.,4.8,0.,4.8,1.,4.8,0.,4.8
1979-07-29 09:00:41.420 ,0,0,4.,4.8,0.,4.8,0.,4.8,0.,4.8
1979-07-29 09:00:46.220 ,0,0,2.,4.8,0.,4.8,0.,4.8,0.,4.8
1979-07-29 09:00:51.020 ,0,0,0.,4.8,0.,4.8,0.,4.8,0.,4.8
1979-07-29 09:00:55.820 ,0,0,4.,4.8,0.,4.8,0.,4.8,0.,4.8
1979-07-29 09:01:00.620 ,0,0,2.,4.8,0.,4.8,1.,4.8,0.,4.8
1979-07-29 09:01:05.420 ,0,0,1.,4.8,0.,4.8,0.,4.8,0.,4.8
1979-07-29 09:01:10.220 ,0,0,4.,4.8,0.,4.8,0.,4.8,0.,4.8
1979-07-29 09:01:15.020 ,0,0,4.,4.8,0.,4.8,0.,4.8,0.,4.8
1979-07-29 09:01:19.820 ,0,0,1.,4.8,0.,4.8,0.,4.8,0.,4.8
1979-07-29 09:01:24.620 ,0,0,1.,4.8,0.,4.8,0.,4.8,0.,4.8
1979-07-29 09:01:29.420 ,0,0,3.,4.8,0.,4.8,0.,4.8,0.,4.8
1979-07-29 09:01:34.220 ,1,0,3.,4.8,1.,4.8,0.,4.8,0.,4.8
1979-07-29 09:01:39.020 ,1,0,2.,4.8,0.,4.8,0.,4.8,0.,4.8
1979-07-29 09:01:43.820 ,1,0,6.,4.8,0.,4.8,0.,4.8,0.,4.8
1979-07-29 09:01:48.620 ,1,0,2.,4.8,0.,4.8,1.,4.8,0.,4.8
1979-07-29 09:01:53.420 ,1,0,6.,4.8,0.,4.8,0.,4.8,0.,4.8
1979-07-29 09:01:58.220 ,1,0,6.,4.8,0.,4.8,0.,4.8,0.,4.8
1979-07-29 09:02:03.020 ,1,0,5.,4.8,0.,4.8,0.,4.8,0.,4.8
1979-07-29 09:02:07.820 ,1,0,1.,4.8,0.,4.8,0.,4.8,0.,4.8
1979-07-29 09:02:12.620 ,1,0,4.,4.8,0.,4.8,0.,4.8,0.,4.8
1979-07-29 09:02:17.420 ,1,0,1.,4.8,0.,4.8,0.,4.8,0.,4.8
1979-07-29 09:02:22.220 ,2,0,1.,4.8,1.,4.8,0.,4.8,0.,4.8
1979-07-29 09:02:27.020 ,2,0,3.,4.8,1.,4.8,0.,4.8,0.,4.8
1979-07-29 09:02:31.820 ,2,0,5.,4.8,0.,4.8,1.,4.8,0.,4.8
1979-07-29 09:02:36.620 ,2,0,2.,4.8,0.,4.8,0.,4.8,0.,4.8
1979-07-29 09:02:41.420 ,2,0,3.,4.8,0.,4.8,0.,4.8,0.,4.8
1979-07-29 09:02:46.220 ,2,0,1.,4.8,0.,4.8,0.,4.8,0.,4.8
1979-07-29 09:02:51.020 ,2,0,6.,4.8,0.,4.8,0.,4.8,0.,4.8
1979-07-29 09:02:55.820 ,2,0,0.,4.8,0.,4.8,0.,4.8,0.,4.8
1979-07-29 09:03:00.620 ,2,0,3.,4.8,0.,4.8,0.,4.8,0.,4.8
1979-07-29 09:03:05.420 ,2,0,2.,4.8,0.,4.8,0.,4.8,0.,4.8
1979-07-29 09:03:10.220 ,3,0,1.,4.8,0.,4.8,0.,4.8,0.,4.8
1979-07-29 09:03:15.020 ,3,0,2.,4.8,0.,4.8,0.,4.8,0.,4.8
1979-07-29 09:03:19.820 ,3,0,2.,4.8,0.,4.8,0.,4.8,0.,4.8
1979-07-29 09:03:24.620 ,3,0,4.,4.8,0.,4.8,0.,4.8,0.,4.8
1979-07-29 09:03:29.420 ,3,0,1.,4.8,0.,4.8,3.,4.8,0.,4.8
1979-07-29 09:03:34.220 ,3,0,1.,4.8,0.,4.8,0.,4.8,0.,4.8
1979-07-29 09:03:39.020 ,3,0,1.,4.8,0.,4.8,0.,4.8,0.,4.8
1979-07-29 09:03:43.820 ,3,0,3.,4.8,0.,4.8,0.,4.8,0.,4.8
1979-07-29 09:03:48.620 ,3,0,2.,4.8,0.,4.8,0.,4.8,0.,4.8
1979-07-29 09:03:53.420 ,3,0,2.,4.8,0.,4.8,1.,4.8,0.,4.8
1979-07-29 09:03:58.220 ,4,0,3.,4.8,0.,4.8,0.,4.8,0.,4.8
1979-07-29 09:04:03.020 ,4,0,1.,4.8,0.,4.8,1.,4.8,0.,4.8
1979-07-29 09:04:07.820 ,4,0,3.,4.8,0.,4.8,0.,4.8,0.,4.8
1979-07-29 09:04:12.620 ,4,0,1.,4.8,0.,4.8,0.,4.8,0.,4.8
1979-07-29 09:04:17.420 ,4,0,4.,4.8,0.,4.8,0.,4.8,0.,4.8
1979-07-29 09:04:22.220 ,4,0,5.,4.8,0.,4.8,0.,4.8,0.,4.8
1979-07-29 09:04:27.020 ,4,0,5.,4.8,0.,4.8,0.,4.8,0.,4.8
1979-07-29 09:04:31.820 ,4,0,1.,4.8,0.,4.8,0.,4.8,0.,4.8
1979-07-29 09:04:36.620 ,4,0,3.,4.8,0.,4.8,0.,4.8,0.,4.8
1979-07-29 09:04:41.420 ,4,0,0.,4.8,0.,4.8,0.,4.8,0.,4.8
1979-07-29 09:04:46.220 ,5,0,2.,4.8,0.,4.8,0.,4.8,0.,4.8
1979-07-29 09:04:51.020 ,5,0,4.,4.8,0.,4.8,0.,4.8,0.,4.8
1979-07-29 09:04:55.820 ,5,0,0.,4.8,1.,4.8,0.,4.8,0.,4.8
1979-07-29 09:05:00.620 ,5,0,2.,4.8,0.,4.8,0.,4.8,0.,4.8
1979-07-29 09:05:05.420 ,5,0,2.,4.8,1.,4.8,0.,4.8,0.,4.8
1979-07-29 09:05:10.220 ,5,0,1.,4.8,0.,4.8,0.,4.8,0.,4.8
1979-07-29 09:05:15.020 ,5,0,2.,4.8,0.,4.8,0.,4.8,0.,4.8
1979-07-29 09:05:19.820 ,5,0,2.,4.8,0.,4.8,0.,4.8,0.,4.8
1979-07-29 09:05:24.620 ,5,0,2.,4.8,0.,4.8,0.,4.8,0.,4.8
1979-07-29 09:05:29.420 ,5,0,4.,4.8,0.,4.8,0.,4.8,0.,4.8
1979-07-29 09:05:34.220 ,6,0,2.,4.8,0.,4.8,0.,4.8,0.,4.8
1979-07-29 09:05:39.020 ,6,0,2.,4.8,0.,4.8,0.,4.8,0.,4.8
1979-07-29 09:05:43.820 ,6,0,1.,4.8,0.,4.8,0.,4.8,0.,4.8
1979-07-29 09:05:48.620 ,6,0,3.,4.8,0.,4.8,0.,4.8,0.,4.8
1979-07-29 09:05:53.420 ,6,0,2.,4.8,0.,4.8,0.,4.8,0.,4.8
1979-07-29 09:05:58.220 ,6,0,2.,4.8,0.,4.8,0.,4.8,0.,4.8
1979-07-29 09:06:03.020 ,6,0,1.,4.8,0.,4.8,0.,4.8,0.,4.8
1979-07-29 09:06:07.820 ,6,0,0.,4.8,0.,4.8,0.,4.8,0.,4.8
1979-07-29 09:06:12.620 ,6,0,0.,4.8,0.,4.8,0.,4.8,0.,4.8
1979-07-29 09:06:17.420 ,6,0,1.,4.8,0.,4.8,0.,4.8,0.,4.8
1979-07-29 09:06:22.220 ,7,0,3.,4.8,0.,4.8,0.,4.8,0.,4.8
1979-07-29 09:06:27.020 ,7,0,0.,4.8,0.,4.8,0.,4.8,0.,4.8
1979-07-29 09:06:31.820 ,7,0,2.,4.8,0.,4.8,0.,4.8,0.,4.8
1979-07-29 09:06:36.620 ,7,0,3.,4.8,0.,4.8,0.,4.8,0.,4.8
1979-07-29 09:06:41.420 ,7,0,4.,4.8,0.,4.8,0.,4.8,0.,4.8
1979-07-29 09:06:46.220 ,7,0,2.,4.8,0.,4.8,0.,4.8,0.,4.8
1979-07-29 09:06:51.020 ,7,0,1.,4.8,0.,4.8,0.,4.8,0.,4.8
1979-07-29 09:06:55.820 ,7,0,3.,4.8,0.,4.8,0.,4.8,0.,4.8
1979-07-29 09:07:00.620 ,7,0,1.,4.8,0.,4.8,0.,4.8,0.,4.8
1979-07-29 09:07:05.420 ,7,0,0.,4.8,0.,4.8,0.,4.8,0.,4.8
1979-07-29 09:07:10.220 ,3,1,0.,4.8,0.,4.8,0.,4.8,0.,4.8
1979-07-29 09:07:15.020 ,3,1,1.,4.8,0.,4.8,0.,4.8,0.,4.8
1979-07-29 09:07:19.820 ,3,1,5.,4.8,0.,4.8,0.,4.8,0.,4.8
1979-07-29 09:07:24.620 ,3,1,2.,4.8,0.,4.8,0.,4.8,0.,4.8
1979-07-29 09:07:29.420 ,3,1,4.,4.8,0.,4.8,0.,4.8,0.,4.8
1979-07-29 09:07:34.220 ,0,1,1.,4.8,0.,4.8,1.,4.8,0.,4.8
1979-07-29 09:07:39.020 ,0,1,2.,4.8,0.,4.8,0.,4.8,0.,4.8
1979-07-29 09:07:43.820 ,0,1,2.,4.8,0.,4.8,0.,4.8,0.,4.8
1979-07-29 09:07:48.620 ,0,1,2.,4.8,0.,4.8,0.,4.8,0.,4.8
1979-07-29 09:07:53.420 ,0,1,1.,4.8,0.,4.8,0.,4.8,0.,4.8
1979-07-29 09:07:58.220 ,4,1,2.,4.8,0.,4.8,1.,4.8,0.,4.8
1979-07-29 09:08:03.020 ,4,1,2.,4.8,0.,4.8,1.,4.8,0.,4.8
1979-07-29 09:08:07.820 ,4,1,2.,4.8,0.,4.8,0.,4.8,0.,4.8
1979-07-29 09:08:12.620 ,4,1,2.,4.8,0.,4.8,0.,4.8,0.,4.8
1979-07-29 09:08:17.420 ,4,1,5.,4.8,0.,4.8,0.,4.8,0.,4.8
1979-07-29 09:08:22.220 ,7,1,0.,4.8,0.,4.8,1.,4.8,0.,4.8
1979-07-29 09:08:27.020 ,7,1,7.,4.8,0.,4.8,0.,4.8,0.,4.8
1979-07-29 09:08:31.820 ,7,1,2.,4.8,0.,4.8,0.,4.8,0.,4.8
1979-07-29 09:08:36.620 ,7,1,3.,4.8,0.,4.8,0.,4.8,0.,4.8
1979-07-29 09:08:41.420 ,7,1,4.,4.8,0.,4.8,0.,4.8,0.,4.8
1979-07-29 09:08:46.220 ,3,1,1.,4.8,0.,4.8,0.,4.8,0.,4.8
1979-07-29 09:08:51.020 ,3,1,4.,4.8,0.,4.8,0.,4.8,0.,4.8
1979-07-29 09:08:55.820 ,3,1,2.,4.8,0.,4.8,0.,4.8,0.,4.8
1979-07-29 09:09:00.620 ,3,1,3.,4.8,0.,4.8,0.,4.8,0.,4.8
1979-07-29 09:09:05.420 ,3,1,4.,4.8,0.,4.8,0.,4.8,0.,4.8
1979-07-29 09:09:10.220 ,0,1,3.,4.8,0.,4.8,0.,4.8,0.,4.8
1979-07-29 09:09:15.020 ,0,1,2.,4.8,0.,4.8,0.,4.8,0.,4.8
1979-07-29 09:09:19.820 ,0,1,3.,4.8,0.,4.8,0.,4.8,0.,4.8
1979-07-29 09:09:24.620 ,0,1,2.,4.8,0.,4.8,0.,4.8,0.,4.8
1979-07-29 09:09:29.420 ,0,1,1.,4.8,0.,4.8,0.,4.8,0.,4.8
1979-07-29 09:09:34.220 ,4,1,5.,4.8,0.,4.8,0.,4.8,0.,4.8
1979-07-29 09:09:39.020 ,4,1,1.,4.8,0.,4.8,0.,4.8,0.,4.8
1979-07-29 09:09:43.820 ,4,1,1.,4.8,0.,4.8,0.,4.8,0.,4.8
1979-07-29 09:09:48.620 ,4,1,2.,4.8,0.,4.8,0.,4.8,0.,4.8
1979-07-29 09:09:53.420 ,4,1,3.,4.8,0.,4.8,0.,4.8,0.,4.8
1979-07-29 09:09:58.220 ,7,1,3.,4.8,0.,4.8,0.,4.8,0.,4.8
1979-07-29 09:10:03.020 ,7,1,1.,4.8,0.,4.8,2.,4.8,0.,4.8
1979-07-29 09:10:07.820 ,7,1,0.,4.8,0.,4.8,0.,4.8,0.,4.8
1979-07-29 09:10:12.620 ,7,1,0.,4.8,0.,4.8,0.,4.8,0.,4.8
1979-07-29 09:10:17.420 ,7,1,1.,4.8,0.,4.8,0.,4.8,0.,4.8
1979-07-29 09:10:22.220 ,3,1,2.,4.8,0.,4.8,0.,4.8,0.,4.8
1979-07-29 09:10:27.020 ,3,1,1.,4.8,0.,4.8,0.,4.8,0.,4.8
1979-07-29 09:10:31.820 ,3,1,3.,4.8,0.,4.8,0.,4.8,0.,4.8
1979-07-29 09:10:36.620 ,3,1,1.,4.8,0.,4.8,0.,4.8,0.,4.8
1979-07-29 09:10:41.420 ,3,1,1.,4.8,0.,4.8,0.,4.8,0.,4.8
1979-07-29 09:10:46.220 ,0,1,2.,4.8,0.,4.8,0.,4.8,0.,4.8
1979-07-29 09:10:51.020 ,0,1,,0,,0,,0,,0
1979-07-29 09:10:55.820 ,0,1,2.,4.8,0.,4.8,0.,4.8,0.,4.8
1979-07-29 09:11:00.620 ,0,1,1.,4.8,0.,4.8,1.,4.8,0.,4.8
1979-07-29 09:11:05.420 ,0,1,2.,4.8,0.,4.8,0.,4.8,0.,4.8
1979-07-29 09:11:10.220 ,4,1,1.,4.8,0.,4.8,0.,4.8,0.,4.8
1979-07-29 09:11:15.020 ,4,1,1.,4.8,0.,4.8,0.,4.8,0.,4.8
1979-07-29 09:11:19.820 ,4,1,2.,4.8,0.,4.8,0.,4.8,0.,4.8
1979-07-29 09:11:24.620 ,4,1,2.,4.8,0.,4.8,0.,4.8,0.,4.8
1979-07-29 09:11:29.420 ,4,1,4.,4.8,0.,4.8,1.,4.8,0.,4.8
1979-07-29 09:11:34.220 ,7,1,3.,4.8,0.,4.8,0.,4.8,0.,4.8
1979-07-29 09:11:39.020 ,7,1,2.,4.8,0.,4.8,0.,4.8,0.,4.8
1979-07-29 09:11:43.820 ,7,1,2.,4.8,0.,4.8,0.,4.8,0.,4.8
1979-07-29 09:11:48.620 ,7,1,1.,4.8,0.,4.8,0.,4.8,0.,4.8
1979-07-29 09:11:53.420 ,7,1,1.,4.8,0.,4.8,0.,4.8,0.,4.8
1979-07-29 09:11:58.220 ,3,1,0.,4.8,0.,4.8,0.,4.8,0.,4.8
1979-07-29 09:12:03.020 ,3,1,4.,4.8,0.,4.8,0.,4.8,0.,4.8
1979-07-29 09:12:07.820 ,3,1,2.,4.8,0.,4.8,1.,4.8,0.,4.8
1979-07-29 09:12:12.620 ,3,1,3.,4.8,0.,4.8,1.,4.8,0.,4.8
1979-07-29 09:12:17.420 ,3,1,0.,4.8,0.,4.8,0.,4.8,0.,4.8
1979-07-29 09:12:22.220 ,0,1,5.,4.8,0.,4.8,1.,4.8,0.,4.8
1979-07-29 09:12:27.020 ,0,1,4.,4.8,0.,4.8,0.,4.8,0.,4.8
1979-07-29 09:12:31.820 ,0,1,1.,4.8,0.,4.8,0.,4.8,0.,4.8
1979-07-29 09:12:36.620 ,0,1,2.,4.8,0.,4.8,0.,4.8,0.,4.8
1979-07-29 09:12:41.420 ,0,1,3.,4.8,0.,4.8,0.,4.8,0.,4.8
1979-07-29 09:12:46.220 ,4,1,1.,4.8,0.,4.8,0.,4.8,0.,4.8
1979-07-29 09:12:51.020 ,4,1,1.,4.8,0.,4.8,0.,4.8,0.,4.8
1979-07-29 09:12:55.820 ,4,1,3.,4.8,0.,4.8,0.,4.8,0.,4.8
1979-07-29 09:13:00.620 ,4,1,5.,4.8,0.,4.8,0.,4.8,0.,4.8
1979-07-29 09:13:05.420 ,4,1,3.,4.8,0.,4.8,1.,4.8,0.,4.8
1979-07-29 09:13:10.220 ,7,1,3.,4.8,0.,4.8,0.,4.8,0.,4.8
1979-07-29 09:13:15.020 ,7,1,1.,4.8,0.,4.8,0.,4.8,0.,4.8
1979-07-29 09:13:19.820 ,7,1,0.,4.8,0.,4.8,0.,4.8,0.,4.8
1979-07-29 09:13:24.620 ,7,1,2.,4.8,0.,4.8,0.,4.8,0.,4.8
1979-07-29 09:13:29.420 ,7,1,1.,4.8,0.,4.8,1.,4.8,0.,4.8
1979-07-29 09:13:34.220 ,3,1,1.,4.8,0.,4.8,0.,4.8,0.,4.8
1979-07-29 09:13:39.020 ,3,1,1.,4.8,0.,4.8,0.,4.8,0.,4.8
1979-07-29 09:13:43.820 ,3,1,1.,4.8,0.,4.8,0.,4.8,0.,4.8
1979-07-29 09:13:48.620 ,3,1,5.,4.8,0.,4.8,0.,4.8,0.,4.8
1979-07-29 09:13:53.420 ,3,1,2.,4.8,0.,4.8,0.,4.8,0.,4.8
1979-07-29 09:13:58.220 ,0,1,5.,4.8,0.,4.8,0.,4.8,0.,4.8
1979-07-29 09:14:03.020 ,0,1,2.,4.8,0.,4.8,0.,4.8,0.,4.8
1979-07-29 09:14:07.820 ,0,1,1.,4.8,0.,4.8,0.,4.8,0.,4.8
1979-07-29 09:14:12.620 ,0,1,3.,4.8,0.,4.8,0.,4.8,0.,4.8
1979-07-29 09:14:17.420 ,0,1,0.,4.8,0.,4.8,0.,4.8,0.,4.8
1979-07-29 09:14:22.220 ,4,1,3.,4.8,0.,4.8,0.,4.8,0.,4.8
1979-07-29 09:14:27.020 ,4,1,1.,4.8,0.,4.8,0.,4.8,0.,4.8
1979-07-29 09:14:31.820 ,4,1,3.,4.8,0.,4.8,0.,4.8,0.,4.8
1979-07-29 09:14:36.620 ,4,1,4.,4.8,0.,4.8,0.,4.8,0.,4.8
1979-07-29 09:14:41.420 ,4,1,1.,4.8,0.,4.8,0.,4.8,0.,4.8
1979-07-29 09:14:46.220 ,7,1,3.,4.8,0.,4.8,0.,4.8,0.,4.8
1979-07-29 09:14:51.020 ,7,1,1.,4.8,0.,4.8,0.,4.8,0.,4.8
1979-07-29 09:14:55.820 ,7,1,3.,4.8,0.,4.8,1.,4.8,0.,4.8
1979-07-29 09:15:00.620 ,7,1,1.,4.8,0.,4.8,0.,4.8,0.,4.8
1979-07-29 09:15:05.420 ,7,1,2.,4.8,0.,4.8,0.,4.8,0.,4.8
1979-07-29 09:15:10.220 ,3,1,0.,4.8,0.,4.8,1.,4.8,0.,4.8
1979-07-29 09:15:15.020 ,3,1,2.,4.8,0.,4.8,0.,4.8,0.,4.8
1979-07-29 09:15:19.820 ,3,1,5.,4.8,0.,4.8,0.,4.8,0.,4.8
1979-07-29 09:15:24.620 ,3,1,2.,4.8,0.,4.8,0.,4.8,0.,4.8
1979-07-29 09:15:29.420 ,3,1,1.,4.8,0.,4.8,0.,4.8,0.,4.8
1979-07-29 09:15:34.220 ,0,1,4.,4.8,0.,4.8,1.,4.8,0.,4.8
1979-07-29 09:15:39.020 ,0,1,1.,4.8,0.,4.8,0.,4.8,0.,4.8
1979-07-29 09:15:43.820 ,0,1,2.,4.8,0.,4.8,0.,4.8,0.,4.8
1979-07-29 09:15:48.620 ,0,1,0.,4.8,0.,4.8,1.,4.8,0.,4.8
1979-07-29 09:15:53.420 ,0,1,5.,4.8,0.,4.8,0.,4.8,0.,4.8
1979-07-29 09:15:58.220 ,4,1,2.,4.8,0.,4.8,0.,4.8,0.,4.8
1979-07-29 09:16:03.020 ,4,1,1.,4.8,0.,4.8,0.,4.8,0.,4.8
1979-07-29 09:16:07.820 ,4,1,2.,4.8,0.,4.8,0.,4.8,0.,4.8
1979-07-29 09:16:12.620 ,4,1,4.,4.8,0.,4.8,0.,4.8,0.,4.8
1979-07-29 09:16:17.420 ,4,1,5.,4.8,0.,4.8,0.,4.8,0.,4.8
1979-07-29 09:16:22.220 ,7,1,2.,4.8,0.,4.8,0.,4.8,0.,4.8
1979-07-29 09:16:27.020 ,7,1,1.,4.8,0.,4.8,0.,4.8,0.,4.8
1979-07-29 09:16:31.820 ,7,1,3.,4.8,0.,4.8,0.,4.8,0.,4.8
1979-07-29 09:16:36.620 ,7,1,1.,4.8,0.,4.8,0.,4.8,0.,4.8
1979-07-29 09:16:41.420 ,7,1,3.,4.8,0.,4.8,2.,4.8,0.,4.8
1979-07-29 09:16:46.220 ,3,1,1.,4.8,0.,4.8,0.,4.8,0.,4.8
1979-07-29 09:16:51.020 ,3,1,2.,4.8,0.,4.8,0.,4.8,0.,4.8
1979-07-29 09:16:55.820 ,3,1,2.,4.8,0.,4.8,0.,4.8,0.,4.8
1979-07-29 09:17:00.620 ,3,1,1.,4.8,0.,4.8,1.,4.8,0.,4.8
1979-07-29 09:17:05.420 ,3,1,5.,4.8,0.,4.8,0.,4.8,0.,4.8
1979-07-29 09:17:10.220 ,0,1,3.,4.8,0.,4.8,1.,4.8,0.,4.8
1979-07-29 09:17:15.020 ,0,1,4.,4.8,0.,4.8,0.,4.8,0.,4.8
1979-07-29 09:17:19.820 ,0,1,0.,4.8,0.,4.8,0.,4.8,0.,4.8
1979-07-29 09:17:24.620 ,0,1,7.,4.8,0.,4.8,0.,4.8,0.,4.8
1979-07-29 09:17:29.420 ,0,1,3.,4.8,0.,4.8,0.,4.8,0.,4.8
1979-07-29 09:17:34.220 ,0,0,0.,4.8,0.,4.8,0.,4.8,0.,4.8
1979-07-29 09:17:39.020 ,0,0,1.,4.8,0.,4.8,0.,4.8,0.,4.8
1979-07-29 09:17:43.820 ,0,0,1.,4.8,1.,4.8,0.,4.8,0.,4.8
1979-07-29 09:17:48.620 ,0,0,1.,4.8,0.,4.8,0.,4.8,0.,4.8
1979-07-29 09:17:53.420 ,0,0,4.,4.8,0.,4.8,0.,4.8,0.,4.8
1979-07-29 09:17:58.220 ,0,0,0.,4.8,0.,4.8,0.,4.8,0.,4.8
1979-07-29 09:18:03.020 ,0,0,3.,4.8,0.,4.8,0.,4.8,0.,4.8
1979-07-29 09:18:07.820 ,0,0,1.,4.8,0.,4.8,0.,4.8,0.,4.8
1979-07-29 09:18:12.620 ,0,0,4.,4.8,0.,4.8,0.,4.8,0.,4.8
1979-07-29 09:18:17.420 ,0,0,1.,4.8,0.,4.8,0.,4.8,0.,4.8
1979-07-29 09:18:22.220 ,5,0,1.,4.8,0.,4.8,0.,4.8,0.,4.8
1979-07-29 09:18:27.020 ,5,0,2.,4.8,0.,4.8,0.,4.8,0.,4.8
1979-07-29 09:18:31.820 ,5,0,2.,4.8,0.,4.8,0.,4.8,0.,4.8
1979-07-29 09:18:36.620 ,5,0,3.,4.8,0.,4.8,0.,4.8,0.,4.8
1979-07-29 09:18:41.420 ,5,0,3.,4.8,0.,4.8,0.,4.8,0.,4.8
1979-07-29 09:18:46.220 ,5,0,1.,4.8,0.,4.8,0.,4.8,0.,4.8
1979-07-29 09:18:51.020 ,5,0,2.,4.8,0.,4.8,1.,4.8,0.,4.8
1979-07-29 09:18:55.820 ,5,0,4.,4.8,0.,4.8,1.,4.8,0.,4.8
1979-07-29 09:19:00.620 ,5,0,0.,4.8,0.,4.8,0.,4.8,0.,4.8
1979-07-29 09:19:05.420 ,5,0,2.,4.8,0.,4.8,0.,4.8,0.,4.8
1979-07-29 09:19:10.220 ,4,0,3.,4.8,0.,4.8,0.,4.8,0.,4.8
1979-07-29 09:19:15.020 ,4,0,3.,4.8,0.,4.8,0.,4.8,0.,4.8
1979-07-29 09:19:19.820 ,4,0,2.,4.8,0.,4.8,0.,4.8,0.,4.8
1979-07-29 09:19:24.620 ,4,0,3.,4.8,0.,4.8,0.,4.8,0.,4.8
1979-07-29 09:19:29.420 ,4,0,0.,4.8,0.,4.8,0.,4.8,0.,4.8
1979-07-29 09:19:34.220 ,4,0,2.,4.8,0.,4.8,0.,4.8,0.,4.8
1979-07-29 09:19:39.020 ,4,0,2.,4.8,0.,4.8,0.,4.8,0.,4.8
1979-07-29 09:19:43.820 ,4,0,5.,4.8,0.,4.8,0.,4.8,0.,4.8
1979-07-29 09:19:48.620 ,4,0,1.,4.8,0.,4.8,0.,4.8,0.,4.8
1979-07-29 09:19:53.420 ,4,0,0.,4.8,0.,4.8,0.,4.8,0.,4.8
1979-07-29 09:19:58.220 ,3,0,4.,4.8,0.,4.8,1.,4.8,0.,4.8
1979-07-29 09:20:03.020 ,3,0,5.,4.8,0.,4.8,0.,4.8,0.,4.8
1979-07-29 09:20:07.820 ,3,0,4.,4.8,0.,4.8,0.,4.8,0.,4.8
1979-07-29 09:20:12.620 ,3,0,2.,4.8,0.,4.8,0.,4.8,0.,4.8
1979-07-29 09:20:17.420 ,3,0,1.,4.8,0.,4.8,0.,4.8,0.,4.8
1979-07-29 09:20:22.220 ,3,0,0.,4.8,0.,4.8,0.,4.8,0.,4.8
1979-07-29 09:20:27.020 ,3,0,1.,4.8,0.,4.8,0.,4.8,0.,4.8
1979-07-29 09:20:31.820 ,3,0,1.,4.8,0.,4.8,0.,4.8,0.,4.8
1979-07-29 09:20:36.620 ,3,0,2.,4.8,0.,4.8,0.,4.8,0.,4.8
1979-07-29 09:20:41.420 ,3,0,2.,4.8,0.,4.8,0.,4.8,0.,4.8
1979-07-29 09:20:46.220 ,2,0,2.,4.8,0.,4.8,0.,4.8,0.,4.8
1979-07-29 09:20:51.020 ,2,0,5.,4.8,0.,4.8,0.,4.8,0.,4.8
1979-07-29 09:20:55.820 ,2,0,3.,4.8,0.,4.8,0.,4.8,0.,4.8
1979-07-29 09:21:00.620 ,2,0,4.,4.8,0.,4.8,0.,4.8,0.,4.8
1979-07-29 09:21:05.420 ,2,0,1.,4.8,0.,4.8,0.,4.8,0.,4.8
1979-07-29 09:21:10.220 ,2,0,5.,4.8,0.,4.8,1.,4.8,0.,4.8
1979-07-29 09:21:15.020 ,2,0,2.,4.8,0.,4.8,0.,4.8,0.,4.8
1979-07-29 09:21:19.820 ,2,0,3.,4.8,0.,4.8,0.,4.8,0.,4.8
1979-07-29 09:21:24.620 ,2,0,1.,4.8,0.,4.8,0.,4.8,0.,4.8
1979-07-29 09:21:29.420 ,2,0,3.,4.8,0.,4.8,0.,4.8,0.,4.8
1979-07-29 09:21:34.220 ,1,0,4.,4.8,0.,4.8,0.,4.8,0.,4.8
1979-07-29 09:21:39.020 ,1,0,5.,4.8,0.,4.8,0.,4.8,0.,4.8
1979-07-29 09:21:43.820 ,1,0,3.,4.8,0.,4.8,0.,4.8,0.,4.8
1979-07-29 09:21:48.620 ,1,0,2.,4.8,0.,4.8,0.,4.8,0.,4.8
1979-07-29 09:21:53.420 ,1,0,2.,4.8,0.,4.8,0.,4.8,0.,4.8
1979-07-29 09:21:58.220 ,1,0,4.,4.8,0.,4.8,0.,4.8,0.,4.8
1979-07-29 09:22:03.020 ,1,0,3.,4.8,0.,4.8,0.,4.8,0.,4.8
1979-07-29 09:22:07.820 ,1,0,2.,4.8,0.,4.8,0.,4.8,0.,4.8
1979-07-29 09:22:12.620 ,1,0,2.,4.8,0.,4.8,0.,4.8,0.,4.8
1979-07-29 09:22:17.420 ,1,0,0.,4.8,0.,4.8,0.,4.8,0.,4.8
1979-07-29 09:22:22.220 ,0,0,1.,4.8,0.,4.8,0.,4.8,0.,4.8
1979-07-29 09:22:27.020 ,0,0,2.,4.8,0.,4.8,0.,4.8,0.,4.8
1979-07-29 09:22:31.820 ,0,0,4.,4.8,0.,4.8,0.,4.8,0.,4.8
1979-07-29 09:22:36.620 ,0,0,2.,4.8,0.,4.8,0.,4.8,0.,4.8
1979-07-29 09:22:41.420 ,0,0,2.,4.8,0.,4.8,0.,4.8,0.,4.8
1979-07-29 09:22:46.220 ,0,0,5.,4.8,0.,4.8,1.,4.8,0.,4.8
1979-07-29 09:22:51.020 ,0,0,5.,4.8,0.,4.8,0.,4.8,0.,4.8
1979-07-29 09:22:55.820 ,0,0,4.,4.8,0.,4.8,0.,4.8,0.,4.8
1979-07-29 09:23:00.620 ,0,0,1.,4.8,0.,4.8,0.,4.8,0.,4.8
1979-07-29 09:23:05.420 ,0,0,7.,4.8,1.,4.8,0.,4.8,0.,4.8
1979-07-29 09:23:10.220 ,0,0,0.,4.8,0.,4.8,1.,4.8,0.,4.8
1979-07-29 09:23:15.020 ,0,0,1.,4.8,0.,4.8,0.,4.8,0.,4.8
1979-07-29 09:23:19.820 ,0,0,6.,4.8,0.,4.8,0.,4.8,0.,4.8
1979-07-29 09:23:24.620 ,0,0,1.,4.8,0.,4.8,0.,4.8,0.,4.8
1979-07-29 09:23:29.420 ,0,0,2.,4.8,0.,4.8,0.,4.8,0.,4.8
1979-07-29 09:23:34.220 ,0,0,1.,4.8,0.,4.8,0.,4.8,0.,4.8
1979-07-29 09:23:39.020 ,0,0,2.,4.8,0.,4.8,0.,4.8,0.,4.8
1979-07-29 09:23:43.820 ,0,0,2.,4.8,0.,4.8,0.,4.8,0.,4.8
1979-07-29 09:23:48.620 ,0,0,0.,4.8,0.,4.8,1.,4.8,0.,4.8
1979-07-29 09:23:53.420 ,0,0,2.,4.8,0.,4.8,0.,4.8,0.,4.8
1979-07-29 09:23:58.220 ,1,0,3.,4.8,0.,4.8,0.,4.8,0.,4.8
1979-07-29 09:24:03.020 ,1,0,4.,4.8,0.,4.8,0.,4.8,0.,4.8
1979-07-29 09:24:07.820 ,1,0,1.,4.8,0.,4.8,0.,4.8,0.,4.8
1979-07-29 09:24:12.620 ,1,0,2.,4.8,0.,4.8,0.,4.8,0.,4.8
1979-07-29 09:24:17.420 ,1,0,3.,4.8,0.,4.8,0.,4.8,0.,4.8
1979-07-29 09:24:22.220 ,1,0,3.,4.8,0.,4.8,0.,4.8,0.,4.8
1979-07-29 09:24:27.020 ,1,0,1.,4.8,0.,4.8,0.,4.8,0.,4.8
1979-07-29 09:24:31.820 ,1,0,3.,4.8,0.,4.8,0.,4.8,0.,4.8
1979-07-29 09:24:36.620 ,1,0,4.,4.8,0.,4.8,0.,4.8,0.,4.8
1979-07-29 09:24:41.420 ,1,0,2.,4.8,1.,4.8,0.,4.8,0.,4.8
1979-07-29 09:24:46.220 ,2,0,3.,4.8,0.,4.8,0.,4.8,0.,4.8
1979-07-29 09:24:51.020 ,2,0,4.,4.8,0.,4.8,0.,4.8,0.,4.8
1979-07-29 09:24:55.820 ,2,0,0.,4.8,0.,4.8,0.,4.8,0.,4.8
1979-07-29 09:25:00.620 ,2,0,5.,4.8,0.,4.8,1.,4.8,0.,4.8
1979-07-29 09:25:05.420 ,2,0,2.,4.8,0.,4.8,0.,4.8,0.,4.8
1979-07-29 09:25:10.220 ,2,0,3.,4.8,0.,4.8,1.,4.8,0.,4.8
1979-07-29 09:25:15.020 ,2,0,1.,4.8,0.,4.8,0.,4.8,0.,4.8
1979-07-29 09:25:19.820 ,2,0,2.,4.8,0.,4.8,0.,4.8,0.,4.8
1979-07-29 09:25:24.620 ,2,0,5.,4.8,0.,4.8,1.,4.8,0.,4.8
1979-07-29 09:25:29.420 ,2,0,1.,4.8,0.,4.8,0.,4.8,0.,4.8
1979-07-29 09:25:34.220 ,3,0,1.,4.8,0.,4.8,0.,4.8,0.,4.8
1979-07-29 09:25:39.020 ,3,0,4.,4.8,0.,4.8,0.,4.8,0.,4.8
1979-07-29 09:25:43.820 ,3,0,2.,4.8,0.,4.8,0.,4.8,0.,4.8
1979-07-29 09:25:48.620 ,3,0,2.,4.8,0.,4.8,0.,4.8,0.,4.8
1979-07-29 09:25:53.420 ,3,0,4.,4.8,0.,4.8,0.,4.8,0.,4.8
1979-07-29 09:25:58.220 ,3,0,3.,4.8,1.,4.8,0.,4.8,0.,4.8
1979-07-29 09:26:03.020 ,3,0,4.,4.8,0.,4.8,0.,4.8,0.,4.8
1979-07-29 09:26:07.820 ,3,0,1.,4.8,0.,4.8,1.,4.8,0.,4.8
1979-07-29 09:26:12.620 ,3,0,6.,4.8,0.,4.8,0.,4.8,0.,4.8
1979-07-29 09:26:17.420 ,3,0,1.,4.8,0.,4.8,0.,4.8,0.,4.8
1979-07-29 09:26:22.220 ,4,0,1.,4.8,0.,4.8,0.,4.8,0.,4.8
1979-07-29 09:26:27.020 ,4,0,4.,4.8,0.,4.8,0.,4.8,0.,4.8
1979-07-29 09:26:31.820 ,4,0,1.,4.8,0.,4.8,0.,4.8,0.,4.8
1979-07-29 09:26:36.620 ,4,0,0.,4.8,0.,4.8,0.,4.8,0.,4.8
1979-07-29 09:26:41.420 ,4,0,1.,4.8,0.,4.8,1.,4.8,0.,4.8
1979-07-29 09:26:46.220 ,4,0,6.,4.8,0.,4.8,0.,4.8,0.,4.8
1979-07-29 09:26:51.020 ,4,0,4.,4.8,0.,4.8,0.,4.8,0.,4.8
1979-07-29 09:26:55.820 ,4,0,3.,4.8,0.,4.8,0.,4.8,0.,4.8
1979-07-29 09:27:00.620 ,4,0,6.,4.8,0.,4.8,0.,4.8,0.,4.8
1979-07-29 09:27:05.420 ,4,0,1.,4.8,1.,4.8,0.,4.8,0.,4.8
1979-07-29 09:27:10.220 ,5,0,2.,4.8,0.,4.8,0.,4.8,0.,4.8
1979-07-29 09:27:15.020 ,5,0,0.,4.8,0.,4.8,0.,4.8,0.,4.8
1979-07-29 09:27:19.820 ,5,0,4.,4.8,0.,4.8,0.,4.8,0.,4.8
1979-07-29 09:27:24.620 ,5,0,4.,4.8,0.,4.8,0.,4.8,0.,4.8
1979-07-29 09:27:29.420 ,5,0,1.,4.8,0.,4.8,0.,4.8,0.,4.8
1979-07-29 09:27:34.220 ,5,0,1.,4.8,0.,4.8,0.,4.8,0.,4.8
1979-07-29 09:27:39.020 ,5,0,3.,4.8,0.,4.8,1.,4.8,0.,4.8
1979-07-29 09:27:43.820 ,5,0,3.,4.8,0.,4.8,0.,4.8,0.,4.8
1979-07-29 09:27:48.620 ,5,0,4.,4.8,0.,4.8,0.,4.8,0.,4.8
1979-07-29 09:27:53.420 ,5,0,1.,4.8,0.,4.8,0.,4.8,0.,4.8
1979-07-29 09:27:58.220 ,6,0,2.,4.8,0.,4.8,0.,4.8,0.,4.8
1979-07-29 09:28:03.020 ,6,0,2.,4.8,0.,4.8,1.,4.8,0.,4.8
1979-07-29 09:28:07.820 ,6,0,7.,4.8,0.,4.8,0.,4.8,0.,4.8
1979-07-29 09:28:12.620 ,6,0,1.,4.8,0.,4.8,0.,4.8,0.,4.8
1979-07-29 09:28:17.420 ,6,0,2.,4.8,0.,4.8,0.,4.8,0.,4.8
1979-07-29 09:28:22.220 ,6,0,1.,4.8,0.,4.8,0.,4.8,0.,4.8
1979-07-29 09:28:27.020 ,6,0,3.,4.8,0.,4.8,0.,4.8,0.,4.8
1979-07-29 09:28:31.820 ,6,0,4.,4.8,0.,4.8,0.,4.8,0.,4.8
1979-07-29 09:28:36.620 ,6,0,4.,4.8,0.,4.8,0.,4.8,0.,4.8
1979-07-29 09:28:41.420 ,6,0,1.,4.8,0.,4.8,0.,4.8,0.,4.8
1979-07-29 09:28:46.220 ,7,0,1.,4.8,0.,4.8,0.,4.8,0.,4.8
1979-07-29 09:28:51.020 ,7,0,3.,4.8,0.,4.8,0.,4.8,0.,4.8
1979-07-29 09:28:55.820 ,7,0,2.,4.8,0.,4.8,0.,4.8,0.,4.8
1979-07-29 09:29:00.620 ,7,0,0.,4.8,0.,4.8,1.,4.8,0.,4.8
1979-07-29 09:29:05.420 ,7,0,3.,4.8,0.,4.8,0.,4.8,0.,4.8
1979-07-29 09:29:10.220 ,7,0,1.,4.8,0.,4.8,0.,4.8,0.,4.8
1979-07-29 09:29:15.020 ,7,0,1.,4.8,0.,4.8,0.,4.8,0.,4.8
1979-07-29 09:29:19.820 ,7,0,0.,4.8,0.,4.8,0.,4.8,0.,4.8
1979-07-29 09:29:24.620 ,7,0,3.,4.8,0.,4.8,1.,4.8,0.,4.8
1979-07-29 09:29:29.420 ,7,0,2.,4.8,0.,4.8,0.,4.8,0.,4.8
1979-07-29 09:29:34.220 ,7,0,0.,4.8,0.,4.8,0.,4.8,0.,4.8
1979-07-29 09:29:39.020 ,7,0,1.,4.8,0.,4.8,0.,4.8,0.,4.8
1979-07-29 09:29:43.820 ,7,0,0.,4.8,0.,4.8,0.,4.8,0.,4.8
1979-07-29 09:29:48.620 ,7,0,1.,4.8,0.,4.8,0.,4.8,0.,4.8
1979-07-29 09:29:53.420 ,7,0,0.,4.8,0.,4.8,0.,4.8,0.,4.8
1979-07-29 09:29:58.220 ,7,0,1.,4.8,0.,4.8,0.,4.8,0.,4.8
1979-07-29 09:30:03.020 ,7,0,0.,4.8,0.,4.8,0.,4.8,0.,4.8
1979-07-29 09:30:07.820 ,7,0,0.,4.8,0.,4.8,0.,4.8,0.,4.8
1979-07-29 09:30:12.620 ,7,0,2.,4.8,0.,4.8,1.,4.8,0.,4.8
1979-07-29 09:30:17.420 ,7,0,1.,4.8,0.,4.8,0.,4.8,0.,4.8
1979-07-29 09:30:22.220 ,6,0,3.,4.8,0.,4.8,1.,4.8,0.,4.8
1979-07-29 09:30:27.020 ,6,0,2.,4.8,0.,4.8,0.,4.8,0.,4.8
1979-07-29 09:30:31.820 ,6,0,1.,4.8,0.,4.8,1.,4.8,0.,4.8
1979-07-29 09:30:36.620 ,6,0,1.,4.8,0.,4.8,0.,4.8,0.,4.8
1979-07-29 09:30:41.420 ,6,0,2.,4.8,0.,4.8,0.,4.8,1.,4.8
1979-07-29 09:30:46.220 ,6,0,5.,4.8,0.,4.8,0.,4.8,0.,4.8
1979-07-29 09:30:51.020 ,6,0,2.,4.8,0.,4.8,0.,4.8,0.,4.8
1979-07-29 09:30:55.820 ,6,0,0.,4.8,0.,4.8,0.,4.8,0.,4.8
1979-07-29 09:31:00.620 ,6,0,4.,4.8,0.,4.8,0.,4.8,0.,4.8
1979-07-29 09:31:05.420 ,6,0,3.,4.8,0.,4.8,0.,4.8,0.,4.8
1979-07-29 09:31:10.220 ,5,0,3.,4.8,0.,4.8,0.,4.8,0.,4.8
1979-07-29 09:31:15.020 ,5,0,1.,4.8,0.,4.8,0.,4.8,0.,4.8
1979-07-29 09:31:19.820 ,5,0,2.,4.8,0.,4.8,0.,4.8,0.,4.8
1979-07-29 09:31:24.620 ,5,0,2.,4.8,0.,4.8,0.,4.8,0.,4.8
1979-07-29 09:31:29.420 ,5,0,3.,4.8,0.,4.8,0.,4.8,0.,4.8
1979-07-29 09:31:34.220 ,5,0,0.,4.8,0.,4.8,0.,4.8,0.,4.8
1979-07-29 09:31:39.020 ,5,0,4.,4.8,0.,4.8,0.,4.8,0.,4.8
1979-07-29 09:31:43.820 ,5,0,3.,4.8,0.,4.8,0.,4.8,0.,4.8
1979-07-29 09:31:48.620 ,5,0,5.,4.8,0.,4.8,0.,4.8,0.,4.8
1979-07-29 09:31:53.420 ,5,0,2.,4.8,0.,4.8,0.,4.8,0.,4.8
1979-07-29 09:31:58.220 ,4,0,2.,4.8,0.,4.8,0.,4.8,0.,4.8
1979-07-29 09:32:03.020 ,4,0,3.,4.8,0.,4.8,0.,4.8,0.,4.8
1979-07-29 09:32:07.820 ,4,0,1.,4.8,0.,4.8,0.,4.8,0.,4.8
1979-07-29 09:32:12.620 ,4,0,2.,4.8,0.,4.8,0.,4.8,0.,4.8
1979-07-29 09:32:17.420 ,4,0,4.,4.8,0.,4.8,0.,4.8,0.,4.8
1979-07-29 09:32:22.220 ,4,0,3.,4.8,0.,4.8,0.,4.8,0.,4.8
1979-07-29 09:32:27.020 ,4,0,3.,4.8,0.,4.8,1.,4.8,0.,4.8
1979-07-29 09:32:31.820 ,4,0,3.,4.8,0.,4.8,0.,4.8,0.,4.8
1979-07-29 09:32:36.620 ,4,0,7.,4.8,0.,4.8,0.,4.8,0.,4.8
1979-07-29 09:32:41.420 ,4,0,0.,4.8,0.,4.8,0.,4.8,0.,4.8
1979-07-29 09:32:46.220 ,3,0,2.,4.8,0.,4.8,0.,4.8,0.,4.8
1979-07-29 09:32:51.020 ,3,0,2.,4.8,0.,4.8,0.,4.8,0.,4.8
1979-07-29 09:32:55.820 ,3,0,1.,4.8,0.,4.8,0.,4.8,0.,4.8
1979-07-29 09:33:00.620 ,3,0,2.,4.8,0.,4.8,0.,4.8,0.,4.8
1979-07-29 09:33:05.420 ,3,0,3.,4.8,0.,4.8,0.,4.8,0.,4.8
1979-07-29 09:33:10.220 ,3,0,2.,4.8,0.,4.8,0.,4.8,0.,4.8
1979-07-29 09:33:15.020 ,3,0,3.,4.8,0.,4.8,0.,4.8,0.,4.8